Location: Unspecified
(0.0000°N, 0.0000°E)
Time: 12:02:55
(UTC+00:00)

Courier 1B Rocket - Pass Details

Date: 21 December 2018
Orbit: 920 x 1202 km, 28.2° (Epoch: 15 July)

Event Time Altitude Azimuth Distance (km) Brightness Sun altitude
Rises 23:03:28 0° 211° (SSW) 3,952 8.6 -63.0°
Enters shadow 23:03:41 - 210° (SSW) 3,898 8.5 -63.1°
Reaches altitude 10° 23:09:06 10° 177° (S) 2,910 - -63.7°
Maximum altitude 23:10:56 11° 162° (SSE) 2,806 - -63.9°
Drops below altitude 10° 23:12:44 10° 147° (SSE) 2,853 - -64.1°
Sets 23:18:01 0° 112° (ESE) 3,722 - -64.6°
